Location: P�rn�nmaa
(61.1833°N, 23.0000°E)
Time: 17:02:40
(UTC+00:00)

USA 267 - Pass Details

Date: 08 December 2019
Orbit: 1100 x 1107 km, 123.0° (Epoch: 19 January)

Event Time Altitude Azimuth Distance (km) Brightness Sun altitude
Rises 14:04:19 0° 126° (SE) 3,913 6.0 -5.2°
Reaches altitude 10° 14:06:55 10° 132° (SE) 2,957 5.4 -5.4°
Maximum altitude 14:13:11 47° 205° (SSW) 1,426 4.4 -6.0°
Drops below altitude 10° 14:19:28 10° 279° (W) 2,967 6.2 -6.6°
Sets 14:22:05 0° 285° (WNW) 3,927 6.8 -6.9°
